| time (UTC) | temp F | wind direction | speed knots | gust knots | rain 1hr in | rain 24hr in | rain mn in | humidity % | barometer mb |
| 20260510224503 | 54 | 21 | 1.7 | 1.7 | 0.00 | 0.40 | 0.00 | 92 | 1009.4 |
| 20260510224003 | 54 | 8 | 1.7 | 1.7 | 0.01 | 0.40 | 0.00 | 91 | 1009.6 |
| 20260510223503 | 54 | 2 | 1.7 | 1.7 | 0.01 | 0.40 | 0.00 | 91 | 1009.4 |
| 20260510223003 | 54 | 4 | 1.7 | 1.7 | 0.01 | 0.40 | 0.00 | 91 | 1009.5 |
| 20260510222503 | 54 | 4 | 0.9 | 1.7 | 0.01 | 0.40 | 0.00 | 91 | 1009.4 |
| 20260510222003 | 54 | 6 | 0.9 | 1.7 | 0.01 | 0.40 | 0.00 | 91 | 1009.5 |
| 20260510221503 | 54 | 360 | 0.0 | 1.7 | 0.01 | 0.40 | 0.00 | 91 | 1009.6 |
| 20260510221003 | 54 | 360 | 0.9 | 1.7 | 0.01 | 0.40 | 0.00 | 91 | 1009.5 |
| 20260510220503 | 54 | 1 | 1.7 | 2.6 | 0.01 | 0.40 | 0.00 | 91 | 1009.5 |
| 20260510220004 | 54 | 10 | 2.6 | 3.5 | 0.01 | 0.40 | 0.00 | 91 | 1009.6 |
| 20260510215503 | 54 | 20 | 1.7 | 3.5 | 0.01 | 0.40 | 0.40 | 91 | 1009.6 |
| 20260510215024 | 54 | 22 | 0.9 | 2.6 | 0.01 | 0.40 | 0.40 | 91 | 1009.7 |
| 20260510214503 | 54 | 0 | 0.0 | 0.0 | 0.01 | 0.40 | 0.40 | 91 | 1009.9 |
| 20260510214003 | 54 | 0 | 0.0 | 0.0 | 0.00 | 0.39 | 0.39 | 87 | 1010.0 |
| 20260510213503 | 54 | 0 | 0.0 | 0.0 | 0.00 | 0.39 | 0.39 | 87 | 1009.7 |
| 20260510213003 | 54 | 41 | 0.9 | 2.6 | 0.00 | 0.39 | 0.39 | 87 | 1010.0 |
| 20260510212503 | 54 | 35 | 0.9 | 2.6 | 0.00 | 0.39 | 0.39 | 87 | 1010.2 |
| 20260510212003 | 54 | 19 | 0.9 | 2.6 | 0.00 | 0.39 | 0.39 | 87 | 1010.1 |
| 20260510211503 | 54 | 18 | 1.7 | 1.7 | 0.00 | 0.39 | 0.39 | 87 | 1010.1 |
| 20260510211003 | 54 | 22 | 1.7 | 1.7 | 0.00 | 0.39 | 0.39 | 87 | 1010.2 |
| 20260510210503 | 54 | 21 | 0.9 | 1.7 | 0.00 | 0.39 | 0.39 | 87 | 1010.2 |
| 20260510210003 | 54 | 71 | 0.9 | 2.6 | 0.00 | 0.39 | 0.39 | 87 | 1010.2 |
| 20260510205503 | 54 | 63 | 0.9 | 2.6 | 0.00 | 0.39 | 0.39 | 87 | 1010.3 |
| 20260510205003 | 54 | 43 | 1.7 | 3.5 | 0.00 | 0.39 | 0.39 | 91 | 1010.5 |
| 20260510204503 | 54 | 38 | 1.7 | 3.5 | 0.00 | 0.39 | 0.39 | 91 | 1010.5 |
| 20260510204024 | 54 | 45 | 1.7 | 3.5 | 0.00 | 0.39 | 0.39 | 91 | 1010.4 |
| 20260510203503 | 54 | 47 | 1.7 | 3.5 | 0.00 | 0.39 | 0.39 | 91 | 1010.4 |
| 20260510203003 | 54 | 37 | 1.7 | 1.7 | 0.00 | 0.39 | 0.39 | 91 | 1010.2 |
| 20260510202503 | 54 | 43 | 1.7 | 3.5 | 0.00 | 0.39 | 0.39 | 91 | 1010.4 |
| 20260510202003 | 54 | 55 | 2.6 | 3.5 | 0.00 | 0.39 | 0.39 | 90 | 1010.4 |
| 20260510201503 | 54 | 64 | 1.7 | 2.6 | 0.00 | 0.39 | 0.39 | 90 | 1010.5 |
| 20260510201003 | 54 | 70 | 1.7 | 1.7 | 0.00 | 0.39 | 0.39 | 90 | 1010.5 |
| 20260510200503 | 54 | 86 | 2.6 | 3.5 | 0.00 | 0.39 | 0.39 | 90 | 1010.6 |
| 20260510200003 | 54 | 75 | 2.6 | 3.5 | 0.00 | 0.39 | 0.39 | 90 | 1010.7 |
| 20260510195503 | 54 | 70 | 3.5 | 3.5 | 0.00 | 0.39 | 0.39 | 87 | 1010.8 |
| 20260510195003 | 54 | 76 | 3.5 | 3.5 | 0.00 | 0.39 | 0.39 | 86 | 1010.8 |
| 20260510194503 | 54 | 67 | 3.5 | 4.3 | 0.00 | 0.39 | 0.39 | 86 | 1010.7 |
| 20260510194003 | 54 | 71 | 4.3 | 4.3 | 0.00 | 0.39 | 0.39 | 86 | 1010.7 |
| 20260510193503 | 54 | 79 | 3.5 | 4.3 | 0.00 | 0.39 | 0.39 | 86 | 1010.7 |
| 20260510193003 | 54 | 78 | 2.6 | 3.5 | 0.00 | 0.39 | 0.39 | 86 | 1010.8 |
| 20260510192503 | 55 | 75 | 1.7 | 2.6 | 0.00 | 0.39 | 0.39 | 86 | 1010.7 |
| 20260510192024 | 55 | 83 | 2.6 | 2.6 | 0.00 | 0.39 | 0.39 | 86 | 1010.7 |
| 20260510191504 | 55 | 94 | 2.6 | 3.5 | 0.00 | 0.39 | 0.39 | 86 | 1010.6 |
| 20260510191024 | 55 | 116 | 3.5 | 3.5 | 0.00 | 0.39 | 0.39 | 86 | 1010.8 |
| 20260510190503 | 55 | 108 | 3.5 | 3.5 | 0.00 | 0.39 | 0.39 | 86 | 1010.8 |
| 20260510190003 | 55 | 77 | 3.5 | 3.5 | 0.00 | 0.39 | 0.39 | 86 | 1010.7 |
| 20260510185503 | 55 | 88 | 3.5 | 3.5 | 0.00 | 0.39 | 0.39 | 85 | 1010.6 |
| 20260510185003 | 55 | 85 | 3.5 | 3.5 | 0.00 | 0.39 | 0.39 | 85 | 1010.7 |
| 20260510184503 | 55 | 79 | 1.7 | 3.5 | 0.00 | 0.39 | 0.39 | 85 | 1010.7 |
| 20260510184003 | 55 | 67 | 1.7 | 2.6 | 0.00 | 0.39 | 0.39 | 85 | 1010.6 |
| 20260510183503 | 55 | 76 | 1.7 | 2.6 | 0.00 | 0.39 | 0.39 | 85 | 1010.6 |
| 20260510183024 | 55 | 89 | 2.6 | 3.5 | 0.00 | 0.39 | 0.39 | 85 | 1010.7 |
| 20260510182503 | 55 | 81 | 3.5 | 3.5 | 0.00 | 0.39 | 0.39 | 85 | 1010.4 |
| 20260510182003 | 55 | 72 | 3.5 | 3.5 | 0.00 | 0.39 | 0.39 | 85 | 1010.5 |
| 20260510181524 | 55 | 66 | 3.5 | 3.5 | 0.00 | 0.39 | 0.39 | 85 | 1010.6 |
| 20260510181003 | 55 | 63 | 2.6 | 3.5 | 0.00 | 0.39 | 0.39 | 85 | 1010.4 |
| 20260510180524 | 55 | 62 | 2.6 | 3.5 | 0.00 | 0.39 | 0.39 | 84 | 1010.3 |
| 20260510180003 | 55 | 67 | 3.5 | 5.2 | 0.00 | 0.39 | 0.39 | 84 | 1010.4 |
| 20260510175503 | 55 | 65 | 4.3 | 6.1 | 0.00 | 0.39 | 0.39 | 84 | 1010.5 |
| 20260510175003 | 55 | 77 | 5.2 | 6.1 | 0.00 | 0.39 | 0.39 | 84 | 1010.3 |
| 20260510174503 | 55 | 86 | 5.2 | 6.1 | 0.00 | 0.39 | 0.39 | 84 | 1010.4 |
| 20260510174003 | 55 | 81 | 4.3 | 6.1 | 0.00 | 0.39 | 0.39 | 84 | 1010.5 |
| 20260510173503 | 55 | 69 | 4.3 | 6.1 | 0.00 | 0.39 | 0.39 | 84 | 1010.6 |
| 20260510173024 | 55 | 68 | 5.2 | 6.1 | 0.00 | 0.39 | 0.39 | 84 | 1010.6 |
| 20260510172503 | 55 | 77 | 4.3 | 6.1 | 0.00 | 0.39 | 0.39 | 84 | 1010.4 |
| 20260510172004 | 56 | 88 | 4.3 | 7.0 | 0.00 | 0.39 | 0.39 | 84 | 1010.5 |
| 20260510171503 | 56 | 90 | 5.2 | 7.0 | 0.01 | 0.39 | 0.39 | 84 | 1010.5 |
| 20260510171003 | 56 | 115 | 5.2 | 6.1 | 0.01 | 0.39 | 0.39 | 84 | 1010.5 |
| 20260510170503 | 56 | 112 | 5.2 | 6.1 | 0.01 | 0.39 | 0.39 | 83 | 1010.5 |
| 20260510170024 | 56 | 96 | 4.3 | 6.1 | 0.01 | 0.39 | 0.39 | 83 | 1010.5 |
| 20260510165503 | 56 | 105 | 3.5 | 6.1 | 0.01 | 0.39 | 0.39 | 83 | 1010.5 |
| 20260510165003 | 56 | 108 | 3.5 | 6.1 | 0.01 | 0.39 | 0.39 | 83 | 1010.6 |
| 20260510164503 | 56 | 118 | 3.5 | 4.3 | 0.01 | 0.39 | 0.39 | 83 | 1010.5 |
| 20260510164003 | 56 | 121 | 3.5 | 4.3 | 0.01 | 0.39 | 0.39 | 83 | 1010.5 |
| 20260510163503 | 56 | 102 | 2.6 | 3.5 | 0.01 | 0.39 | 0.39 | 83 | 1010.6 |
| 20260510163003 | 56 | 100 | 3.5 | 4.3 | 0.01 | 0.39 | 0.39 | 83 | 1010.7 |
| 20260510162503 | 56 | 120 | 3.5 | 4.3 | 0.01 | 0.39 | 0.39 | 83 | 1010.8 |
| 20260510162003 | 56 | 140 | 2.6 | 3.5 | 0.01 | 0.39 | 0.39 | 83 | 1010.7 |
| 20260510161503 | 57 | 127 | 2.6 | 3.5 | 0.00 | 0.38 | 0.38 | 83 | 1010.8 |
| 20260510161024 | 57 | 83 | 3.5 | 3.5 | 0.01 | 0.38 | 0.38 | 83 | 1010.9 |
| 20260510160524 | 57 | 89 | 3.5 | 3.5 | 0.02 | 0.38 | 0.38 | 83 | 1010.8 |
| 20260510160024 | 57 | 117 | 3.5 | 3.5 | 0.02 | 0.38 | 0.38 | 82 | 1010.8 |
| 20260510155503 | 57 | 132 | 2.6 | 3.5 | 0.02 | 0.38 | 0.38 | 82 | 1010.9 |
| 20260510155003 | 57 | 137 | 0.9 | 2.6 | 0.02 | 0.38 | 0.38 | 82 | 1011.1 |
| 20260510154503 | 57 | 67 | 0.0 | 0.9 | 0.02 | 0.38 | 0.38 | 82 | 1011.1 |
| 20260510154003 | 57 | 0 | 0.0 | 0.0 | 0.02 | 0.38 | 0.38 | 82 | 1011.1 |
| 20260510153503 | 57 | 124 | 1.7 | 3.5 | 0.02 | 0.38 | 0.38 | 82 | 1011.2 |
| 20260510153024 | 57 | 123 | 1.7 | 3.5 | 0.02 | 0.38 | 0.38 | 82 | 1011.2 |
| 20260510152503 | 57 | 100 | 0.9 | 3.5 | 0.02 | 0.38 | 0.38 | 82 | 1011.2 |
| 20260510152003 | 57 | 71 | 1.7 | 2.6 | 0.02 | 0.38 | 0.38 | 82 | 1011.2 |
| 20260510151503 | 57 | 80 | 2.6 | 3.5 | 0.02 | 0.38 | 0.38 | 82 | 1011.2 |
| 20260510151003 | 57 | 113 | 3.5 | 3.5 | 0.01 | 0.37 | 0.37 | 82 | 1011.1 |
| 20260510150503 | 57 | 120 | 3.5 | 3.5 | 0.00 | 0.35 | 0.35 | 82 | 1011.2 |
| 20260510150003 | 57 | 120 | 3.5 | 3.5 | 0.00 | 0.35 | 0.35 | 82 | 1011.2 |
| 20260510145503 | 57 | 142 | 3.5 | 3.5 | 0.00 | 0.35 | 0.35 | 82 | 1011.2 |
| 20260510145003 | 57 | 161 | 2.6 | 3.5 | 0.00 | 0.35 | 0.35 | 82 | 1011.2 |
| 20260510144503 | 57 | 169 | 2.6 | 3.5 | 0.00 | 0.35 | 0.35 | 82 | 1011.5 |
| 20260510144003 | 57 | 159 | 2.6 | 3.5 | 0.00 | 0.35 | 0.35 | 82 | 1011.5 |
| 20260510143503 | 57 | 138 | 1.7 | 3.5 | 0.00 | 0.35 | 0.35 | 82 | 1011.4 |
| 20260510143003 | 57 | 142 | 1.7 | 3.5 | 0.00 | 0.35 | 0.35 | 82 | 1011.4 |
| 20260510142503 | 57 | 169 | 1.7 | 3.5 | 0.00 | 0.35 | 0.35 | 82 | 1011.4 |
| 20260510142003 | 57 | 165 | 2.6 | 3.5 | 0.00 | 0.35 | 0.35 | 82 | 1011.4 |
| 20260510141503 | 57 | 149 | 3.5 | 4.3 | 0.00 | 0.35 | 0.35 | 82 | 1011.5 |
| 20260510141003 | 57 | 170 | 2.6 | 4.3 | 0.00 | 0.35 | 0.35 | 81 | 1011.5 |
| 20260510140503 | 57 | 188 | 3.5 | 4.3 | 0.00 | 0.35 | 0.35 | 81 | 1011.4 |
| 20260510140003 | 57 | 159 | 3.5 | 4.3 | 0.00 | 0.35 | 0.35 | 81 | 1011.5 |
| 20260510135503 | 57 | 139 | 3.5 | 4.3 | 0.00 | 0.35 | 0.35 | 81 | 1011.5 |
| 20260510135003 | 57 | 155 | 3.5 | 4.3 | 0.00 | 0.35 | 0.35 | 82 | 1011.7 |
| 20260510134524 | 57 | 148 | 3.5 | 5.2 | 0.00 | 0.35 | 0.35 | 82 | 1011.7 |
| 20260510134003 | 58 | 153 | 4.3 | 7.0 | 0.00 | 0.35 | 0.35 | 82 | 1011.8 |
| 20260510133503 | 58 | 155 | 4.3 | 7.0 | 0.00 | 0.35 | 0.35 | 83 | 1011.7 |
| 20260510133003 | 58 | 120 | 4.3 | 5.2 | 0.00 | 0.35 | 0.35 | 84 | 1011.8 |
| 20260510132503 | 58 | 111 | 3.5 | 5.2 | 0.00 | 0.35 | 0.35 | 84 | 1011.7 |
| 20260510132003 | 57 | 119 | 3.5 | 4.3 | 0.00 | 0.35 | 0.35 | 84 | 1011.8 |
| 20260510131503 | 57 | 144 | 3.5 | 4.3 | 0.00 | 0.35 | 0.35 | 84 | 1012.0 |
| 20260510131003 | 57 | 181 | 3.5 | 4.3 | 0.00 | 0.35 | 0.35 | 85 | 1012.0 |
| 20260510130503 | 58 | 174 | 3.5 | 3.5 | 0.00 | 0.35 | 0.35 | 85 | 1012.1 |
| 20260510130024 | 58 | 164 | 4.3 | 6.1 | 0.00 | 0.35 | 0.35 | 85 | 1012.0 |
| 20260510125503 | 58 | 133 | 4.3 | 6.1 | 0.00 | 0.35 | 0.35 | 86 | 1012.0 |
| 20260510125003 | 58 | 111 | 4.3 | 6.1 | 0.01 | 0.35 | 0.35 | 86 | 1011.9 |
| 20260510124503 | 58 | 98 | 3.5 | 5.2 | 0.01 | 0.35 | 0.35 | 86 | 1012.1 |
| 20260510124003 | 58 | 85 | 4.3 | 5.2 | 0.02 | 0.35 | 0.35 | 87 | 1012.0 |
| 20260510123503 | 57 | 81 | 3.5 | 5.2 | 0.04 | 0.35 | 0.35 | 87 | 1012.1 |
| 20260510123003 | 57 | 91 | 1.7 | 3.5 | 0.04 | 0.35 | 0.35 | 87 | 1012.1 |
| 20260510122503 | 57 | 107 | 1.7 | 3.5 | 0.04 | 0.35 | 0.35 | 87 | 1012.2 |
| 20260510122003 | 57 | 76 | 1.7 | 3.5 | 0.04 | 0.35 | 0.35 | 87 | 1012.4 |
| 20260510121524 | 57 | 67 | 0.9 | 3.5 | 0.05 | 0.35 | 0.35 | 88 | 1012.4 |
| 20260510121003 | 57 | 67 | 0.0 | 1.7 | 0.05 | 0.35 | 0.35 | 88 | 1012.4 |
| 20260510120503 | 57 | 67 | 0.0 | 1.7 | 0.06 | 0.35 | 0.35 | 88 | 1012.4 |
| 20260510120003 | 57 | 67 | 0.0 | 0.9 | 0.06 | 0.35 | 0.35 | 88 | 1012.5 |
| 20260510115503 | 58 | 59 | 0.0 | 0.9 | 0.06 | 0.35 | 0.35 | 88 | 1012.5 |
| 20260510115003 | 58 | 4 | 0.0 | 1.7 | 0.05 | 0.34 | 0.34 | 88 | 1012.5 |
| 20260510114505 | 58 | 357 | 0.0 | 1.7 | 0.06 | 0.34 | 0.34 | 88 | 1012.5 |
| 20260510114005 | 57 | 357 | 0.0 | 1.7 | 0.05 | 0.33 | 0.33 | 88 | 1012.5 |
| 20260510113505 | 58 | 3 | 0.0 | 1.7 | 0.05 | 0.32 | 0.32 | 88 | 1012.7 |
| 20260510113005 | 58 | 1 | 0.9 | 3.5 | 0.05 | 0.32 | 0.32 | 88 | 1012.8 |
| 20260510112505 | 58 | 353 | 0.9 | 3.5 | 0.06 | 0.32 | 0.32 | 89 | 1012.7 |
| 20260510112005 | 58 | 353 | 0.9 | 1.7 | 0.07 | 0.32 | 0.32 | 89 | 1012.8 |
| 20260510111505 | 58 | 15 | 0.9 | 2.6 | 0.06 | 0.31 | 0.31 | 89 | 1012.7 |
| 20260510111005 | 58 | 357 | 0.9 | 2.6 | 0.07 | 0.31 | 0.31 | 89 | 1012.5 |
| 20260510110505 | 58 | 340 | 0.9 | 1.7 | 0.07 | 0.30 | 0.30 | 89 | 1012.7 |
| 20260510110005 | 58 | 4 | 0.9 | 1.7 | 0.07 | 0.30 | 0.30 | 89 | 1012.9 |
| 20260510105505 | 57 | 1 | 1.7 | 2.6 | 0.07 | 0.30 | 0.30 | 88 | 1012.9 |
| 20260510105026 | 57 | 356 | 1.7 | 2.6 | 0.08 | 0.30 | 0.30 | 88 | 1012.9 |
| 20260510104505 | 57 | 343 | 0.9 | 2.6 | 0.07 | 0.28 | 0.28 | 88 | 1013.0 |
| 20260510104005 | 57 | 358 | 0.9 | 2.6 | 0.07 | 0.28 | 0.28 | 88 | 1013.1 |
| 20260510103526 | 57 | 357 | 1.7 | 3.5 | 0.06 | 0.27 | 0.28 | 88 | 1012.9 |
| 20260510103005 | 57 | 1 | 0.9 | 3.5 | 0.07 | 0.27 | 0.27 | 88 | 1012.9 |
| 20260510102505 | 57 | 17 | 0.9 | 2.6 | 0.06 | 0.26 | 0.26 | 88 | 1013.0 |
| 20260510102026 | 57 | 352 | 0.9 | 1.7 | 0.05 | 0.25 | 0.25 | 88 | 1013.0 |
| 20260510101526 | 57 | 345 | 0.9 | 3.5 | 0.06 | 0.25 | 0.25 | 88 | 1012.9 |
| 20260510101005 | 57 | 339 | 0.9 | 3.5 | 0.05 | 0.24 | 0.24 | 88 | 1013.0 |
| 20260510100526 | 57 | 337 | 0.9 | 3.5 | 0.05 | 0.22 | 0.22 | 88 | 1013.0 |
| 20260510100005 | 57 | 352 | 0.9 | 1.7 | 0.05 | 0.22 | 0.22 | 88 | 1013.1 |
| 20260510095505 | 57 | 21 | 0.0 | 0.9 | 0.05 | 0.22 | 0.22 | 88 | 1013.1 |
| 20260510095005 | 57 | 360 | 0.0 | 0.9 | 0.05 | 0.21 | 0.21 | 88 | 1013.1 |
| 20260510094505 | 57 | 8 | 0.0 | 0.9 | 0.06 | 0.21 | 0.21 | 88 | 1013.2 |
| 20260510094005 | 57 | 9 | 0.0 | 1.7 | 0.07 | 0.21 | 0.21 | 87 | 1013.2 |
| 20260510093505 | 57 | 9 | 0.9 | 1.7 | 0.08 | 0.21 | 0.21 | 87 | 1013.3 |
| 20260510093005 | 57 | 9 | 0.0 | 1.7 | 0.07 | 0.20 | 0.20 | 87 | 1013.2 |
| 20260510092505 | 57 | 0 | 0.0 | 0.0 | 0.08 | 0.20 | 0.20 | 87 | 1013.2 |
| 20260510092005 | 56 | 0 | 0.0 | 0.0 | 0.09 | 0.20 | 0.20 | 87 | 1013.2 |
| 20260510091505 | 56 | 0 | 0.0 | 0.0 | 0.09 | 0.19 | 0.19 | 87 | 1013.1 |
| 20260510091005 | 56 | 0 | 0.0 | 0.0 | 0.09 | 0.19 | 0.19 | 87 | 1013.2 |
| 20260510090505 | 56 | 0 | 0.0 | 0.0 | 0.11 | 0.18 | 0.18 | 86 | 1013.2 |
| 20260510090005 | 56 | 0 | 0.0 | 0.0 | 0.11 | 0.18 | 0.18 | 86 | 1013.2 |
| 20260510085526 | 56 | 0 | 0.0 | 0.0 | 0.12 | 0.18 | 0.18 | 86 | 1013.2 |
| 20260510085005 | 56 | 0 | 0.0 | 0.0 | 0.12 | 0.17 | 0.17 | 86 | 1013.2 |
| 20260510084505 | 56 | 0 | 0.0 | 0.0 | 0.11 | 0.15 | 0.15 | 86 | 1013.2 |
| 20260510084005 | 56 | 0 | 0.0 | 0.0 | 0.11 | 0.14 | 0.14 | 86 | 1013.2 |
| 20260510083526 | 56 | 0 | 0.0 | 0.0 | 0.09 | 0.13 | 0.13 | 86 | 1013.1 |
| 20260510083005 | 56 | 0 | 0.0 | 0.0 | 0.09 | 0.13 | 0.13 | 86 | 1013.2 |
| 20260510082505 | 56 | 0 | 0.0 | 0.0 | 0.08 | 0.12 | 0.12 | 86 | 1013.2 |
| 20260510082005 | 56 | 0 | 0.0 | 0.0 | 0.07 | 0.11 | 0.11 | 86 | 1013.2 |
| 20260510081505 | 56 | 0 | 0.0 | 0.0 | 0.06 | 0.09 | 0.09 | 86 | 1013.2 |
| 20260510081005 | 56 | 0 | 0.0 | 0.0 | 0.06 | 0.09 | 0.09 | 86 | 1013.2 |
| 20260510080505 | 56 | 0 | 0.0 | 0.0 | 0.04 | 0.07 | 0.07 | 86 | 1013.2 |
| 20260510080005 | 56 | 0 | 0.0 | 0.0 | 0.04 | 0.07 | 0.07 | 86 | 1013.2 |
| 20260510075505 | 56 | 0 | 0.0 | 0.0 | 0.02 | 0.06 | 0.06 | 86 | 1013.1 |
| 20260510075005 | 56 | 0 | 0.0 | 0.0 | 0.01 | 0.05 | 0.05 | 86 | 1012.9 |
| 20260510074505 | 56 | 0 | 0.0 | 0.0 | 0.01 | 0.05 | 0.05 | 85 | 1013.0 |
| 20260510074026 | 56 | 0 | 0.0 | 0.0 | 0.00 | 0.04 | 0.04 | 85 | 1012.9 |
| 20260510073505 | 56 | 0 | 0.0 | 0.0 | 0.00 | 0.04 | 0.04 | 85 | 1012.9 |
| 20260510073005 | 55 | 345 | 0.9 | 1.7 | 0.00 | 0.04 | 0.04 | 85 | 1012.9 |
| 20260510072526 | 55 | 355 | 0.9 | 3.5 | 0.00 | 0.04 | 0.04 | 85 | 1012.7 |
| 20260510072005 | 55 | 2 | 0.9 | 3.5 | 0.00 | 0.04 | 0.04 | 85 | 1012.9 |
| 20260510071526 | 55 | 9 | 0.9 | 4.3 | 0.00 | 0.04 | 0.04 | 85 | 1012.7 |
| 20260510071005 | 55 | 3 | 2.6 | 4.3 | 0.00 | 0.04 | 0.04 | 84 | 1012.8 |
| 20260510070505 | 55 | 353 | 3.5 | 5.2 | 0.00 | 0.04 | 0.04 | 84 | 1012.5 |
| 20260510070026 | 55 | 358 | 3.5 | 5.2 | 0.00 | 0.04 | 0.04 | 84 | 1012.7 |
| 20260510065505 | 55 | 11 | 2.6 | 3.5 | 0.00 | 0.04 | 0.04 | 84 | 1012.5 |
| 20260510065005 | 55 | 359 | 1.7 | 3.5 | 0.00 | 0.04 | 0.04 | 83 | 1012.8 |
| 20260510064505 | 55 | 358 | 2.6 | 3.5 | 0.00 | 0.04 | 0.04 | 83 | 1012.7 |
| 20260510064005 | 55 | 358 | 3.5 | 6.1 | 0.00 | 0.04 | 0.04 | 83 | 1012.7 |
| 20260510063505 | 55 | 2 | 3.5 | 6.1 | 0.00 | 0.04 | 0.04 | 83 | 1012.7 |
| 20260510063026 | 55 | 10 | 3.5 | 4.3 | 0.00 | 0.04 | 0.04 | 82 | 1012.7 |
| 20260510062505 | 55 | 6 | 4.3 | 4.3 | 0.00 | 0.04 | 0.04 | 82 | 1012.5 |
| 20260510062005 | 55 | 2 | 3.5 | 4.3 | 0.00 | 0.04 | 0.04 | 82 | 1012.5 |
| 20260510061526 | 55 | 353 | 2.6 | 3.5 | 0.01 | 0.04 | 0.04 | 81 | 1012.7 |
| 20260510061005 | 56 | 349 | 1.7 | 3.5 | 0.01 | 0.04 | 0.04 | 81 | 1012.7 |
| 20260510060505 | 56 | 356 | 3.5 | 8.7 | 0.01 | 0.04 | 0.04 | 81 | 1012.5 |
| 20260510060006 | 56 | 355 | 2.6 | 8.7 | 0.01 | 0.04 | 0.04 | 81 | 1012.5 |
| 20260510055505 | 56 | 333 | 0.9 | 3.5 | 0.01 | 0.04 | 0.04 | 80 | 1012.5 |
| 20260510055005 | 56 | 286 | 2.6 | 5.2 | 0.01 | 0.04 | 0.04 | 80 | 1012.4 |
| 20260510054505 | 56 | 263 | 1.7 | 5.2 | 0.01 | 0.04 | 0.04 | 80 | 1012.2 |
| 20260510054005 | 56 | 299 | 0.9 | 1.7 | 0.01 | 0.04 | 0.04 | 80 | 1012.5 |
| 20260510053526 | 56 | 321 | 0.9 | 1.7 | 0.01 | 0.04 | 0.04 | 79 | 1012.2 |
| 20260510053026 | 56 | 316 | 0.9 | 1.7 | 0.01 | 0.04 | 0.04 | 79 | 1012.0 |
| 20260510052526 | 56 | 304 | 0.9 | 1.7 | 0.01 | 0.04 | 0.04 | 78 | 1012.0 |
| 20260510052041 | 56 | 315 | 0.0 | 0.9 | 0.01 | 0.04 | 0.04 | 78 | 1012.1 |
| 20260510051505 | 57 | 283 | 0.9 | 1.7 | 0.00 | 0.02 | 0.02 | 78 | 1011.8 |
| 20260510051005 | 57 | 267 | 0.0 | 1.7 | 0.00 | 0.02 | 0.02 | 77 | 1011.8 |
| 20260510050505 | 57 | 101 | 0.9 | 2.6 | 0.00 | 0.02 | 0.02 | 78 | 1011.9 |
| 20260510050005 | 57 | 101 | 0.9 | 2.6 | 0.00 | 0.02 | 0.02 | 78 | 1011.5 |
| 20260510045526 | 57 | 88 | 0.0 | 2.6 | 0.00 | 0.02 | 0.02 | 77 | 1011.7 |
| 20260510045005 | 57 | 58 | 0.9 | 1.7 | 0.00 | 0.02 | 0.02 | 78 | 1011.5 |
| 20260510044526 | 57 | 26 | 0.9 | 1.7 | 0.00 | 0.02 | 0.02 | 78 | 1011.5 |
| 20260510044005 | 57 | 4 | 1.7 | 3.5 | 0.00 | 0.02 | 0.02 | 78 | 1011.4 |
| 20260510043505 | 57 | 9 | 3.5 | 6.1 | 0.00 | 0.02 | 0.02 | 78 | 1011.5 |
| 20260510043005 | 57 | 16 | 5.2 | 7.0 | 0.00 | 0.02 | 0.02 | 78 | 1011.4 |
| 20260510042526 | 57 | 20 | 5.2 | 7.0 | 0.00 | 0.02 | 0.02 | 79 | 1011.6 |
| 20260510042005 | 57 | 25 | 5.2 | 7.0 | 0.00 | 0.02 | 0.02 | 79 | 1011.5 |
| 20260510041505 | 57 | 27 | 6.1 | 8.7 | 0.00 | 0.02 | 0.02 | 79 | 1011.6 |
| 20260510041026 | 56 | 49 | 6.1 | 8.7 | 0.00 | 0.02 | 0.02 | 79 | 1011.6 |
| 20260510040505 | 56 | 55 | 6.1 | 7.0 | 0.00 | 0.02 | 0.02 | 78 | 1011.6 |
| 20260510040005 | 56 | 23 | 4.3 | 7.0 | 0.00 | 0.02 | 0.02 | 78 | 1011.5 |
| 20260510035526 | 56 | 12 | 3.5 | 5.2 | 0.00 | 0.02 | 0.02 | 78 | 1011.6 |
| 20260510035005 | 56 | 9 | 3.5 | 4.3 | 0.00 | 0.02 | 0.02 | 77 | 1011.5 |
| 20260510034505 | 57 | 3 | 3.5 | 4.3 | 0.00 | 0.02 | 0.02 | 76 | 1011.7 |
| 20260510034026 | 57 | 22 | 3.5 | 4.3 | 0.00 | 0.02 | 0.02 | 76 | 1011.7 |
| 20260510033505 | 57 | 41 | 5.2 | 7.0 | 0.00 | 0.02 | 0.02 | 75 | 1011.8 |
| 20260510033005 | 57 | 45 | 6.1 | 7.0 | 0.00 | 0.02 | 0.02 | 75 | 1011.7 |
| 20260510032505 | 58 | 51 | 6.1 | 7.0 | 0.00 | 0.02 | 0.02 | 75 | 1011.8 |
| 20260510032005 | 58 | 49 | 5.2 | 6.1 | 0.00 | 0.02 | 0.02 | 75 | 1011.7 |
| 20260510031505 | 58 | 47 | 4.3 | 4.3 | 0.00 | 0.02 | 0.02 | 75 | 1011.8 |
| 20260510031005 | 58 | 47 | 2.6 | 4.3 | 0.00 | 0.02 | 0.02 | 76 | 1011.8 |
| 20260510030505 | 57 | 42 | 1.7 | 3.5 | 0.00 | 0.02 | 0.02 | 76 | 1011.9 |
| 20260510030005 | 57 | 6 | 1.7 | 3.5 | 0.00 | 0.02 | 0.02 | 76 | 1011.9 |
| 20260510025505 | 58 | 7 | 3.5 | 4.3 | 0.00 | 0.02 | 0.02 | 76 | 1012.0 |
| 20260510025005 | 57 | 12 | 3.5 | 4.3 | 0.00 | 0.02 | 0.02 | 76 | 1012.1 |
| 20260510024505 | 57 | 15 | 4.3 | 4.3 | 0.00 | 0.02 | 0.02 | 76 | 1012.0 |
| 20260510024020 | 57 | 12 | 3.5 | 4.3 | 0.00 | 0.02 | 0.02 | 76 | 1012.0 |
| 20260510023505 | 57 | 8 | 2.6 | 3.5 | 0.00 | 0.02 | 0.02 | 76 | 1012.2 |
| 20260510023005 | 56 | 10 | 3.5 | 5.2 | 0.00 | 0.02 | 0.02 | 76 | 1012.4 |
| 20260510022505 | 56 | 13 | 3.5 | 5.2 | 0.00 | 0.02 | 0.02 | 76 | 1012.4 |
| 20260510022005 | 56 | 12 | 2.6 | 3.5 | 0.00 | 0.02 | 0.02 | 76 | 1012.5 |
| 20260510021505 | 56 | 9 | 2.6 | 3.5 | 0.00 | 0.02 | 0.02 | 75 | 1012.5 |
| 20260510021005 | 56 | 4 | 2.6 | 3.5 | 0.01 | 0.02 | 0.02 | 75 | 1012.7 |
| 20260510020505 | 56 | 2 | 1.7 | 2.6 | 0.01 | 0.02 | 0.02 | 73 | 1012.7 |
| 20260510020005 | 56 | 4 | 0.9 | 2.6 | 0.01 | 0.02 | 0.02 | 73 | 1012.8 |
| 20260510015505 | 57 | 356 | 0.9 | 2.6 | 0.02 | 0.02 | 0.02 | 72 | 1012.7 |
| 20260510015026 | 57 | 355 | 0.0 | 0.9 | 0.02 | 0.02 | 0.02 | 71 | 1012.9 |
| 20260510014505 | 57 | 22 | 0.0 | 0.9 | 0.02 | 0.02 | 0.02 | 70 | 1013.0 |
| 20260510014005 | 57 | 32 | 1.7 | 6.1 | 0.02 | 0.02 | 0.02 | 70 | 1013.2 |
| 20260510013505 | 58 | 43 | 4.3 | 7.0 | 0.02 | 0.02 | 0.02 | 70 | 1012.9 |
| 20260510013005 | 58 | 60 | 5.2 | 7.0 | 0.02 | 0.02 | 0.02 | 70 | 1012.9 |
| 20260510012505 | 58 | 64 | 4.3 | 7.0 | 0.02 | 0.02 | 0.02 | 69 | 1013.1 |
| 20260510012005 | 58 | 61 | 1.7 | 5.2 | 0.02 | 0.02 | 0.02 | 67 | 1012.9 |
| 20260510011505 | 58 | 137 | 1.7 | 4.3 | 0.02 | 0.02 | 0.02 | 66 | 1013.0 |
| 20260510011005 | 59 | 195 | 4.3 | 7.0 | 0.01 | 0.01 | 0.01 | 66 | 1013.1 |
| 20260510010505 | 59 | 237 | 4.3 | 7.0 | 0.01 | 0.01 | 0.01 | 64 | 1013.2 |
| 20260510010026 | 59 | 231 | 1.7 | 4.3 | 0.01 | 0.01 | 0.01 | 64 | 1013.2 |
| 20260510005505 | 59 | 10 | 0.9 | 2.6 | 0.00 | 0.00 | 0.00 | 64 | 1013.0 |
| 20260510005026 | 59 | 14 | 1.7 | 3.5 | 0.00 | 0.00 | 0.00 | 64 | 1013.0 |
| 20260510004505 | 59 | 18 | 2.6 | 3.5 | 0.00 | 0.00 | 0.00 | 64 | 1012.9 |
| 20260510004005 | 60 | 18 | 2.6 | 3.5 | 0.00 | 0.00 | 0.00 | 63 | 1012.8 |
| 20260510003505 | 60 | 18 | 2.6 | 3.5 | 0.00 | 0.00 | 0.00 | 63 | 1012.8 |
| 20260510003005 | 60 | 21 | 1.7 | 3.5 | 0.00 | 0.00 | 0.00 | 63 | 1012.9 |
| 20260510002505 | 60 | 16 | 1.7 | 3.5 | 0.00 | 0.00 | 0.00 | 63 | 1012.9 |
| 20260510002005 | 60 | 16 | 1.7 | 3.5 | 0.00 | 0.00 | 0.00 | 63 | 1013.0 |
| 20260510001505 | 60 | 25 | 1.7 | 3.5 | 0.00 | 0.00 | 0.00 | 63 | 1013.1 |
| 20260510001026 | 59 | 26 | 1.7 | 3.5 | 0.00 | 0.00 | 0.00 | 63 | 1013.3 |
| 20260510000505 | 59 | 0 | 0.0 | 0.0 | 0.00 | 0.00 | 0.00 | 63 | 1013.2 |
| 20260510000005 | 59 | 0 | 0.0 | 0.0 | 0.00 | 0.00 | 0.00 | 63 | 1013.3 |
| 20260509235505 | 59 | 22 | 0.0 | 1.7 | 0.00 | 0.00 | 0.00 | 63 | 1013.5 |
| 20260509235026 | 59 | 22 | 0.9 | 1.7 | 0.00 | 0.00 | 0.00 | 63 | 1013.5 |
| 20260509234505 | 59 | 14 | 1.7 | 1.7 | 0.00 | 0.00 | 0.00 | 63 | 1013.4 |
| 20260509234005 | 60 | 12 | 2.6 | 3.5 | 0.00 | 0.00 | 0.00 | 63 | 1013.3 |
| 20260509233505 | 60 | 13 | 3.5 | 3.5 | 0.00 | 0.00 | 0.00 | 63 | 1013.4 |
| 20260509233005 | 60 | 10 | 3.5 | 3.5 | 0.00 | 0.00 | 0.00 | 63 | 1013.2 |
| 20260509232505 | 60 | 9 | 2.6 | 3.5 | 0.00 | 0.00 | 0.00 | 62 | 1013.4 |
| 20260509232026 | 60 | 8 | 2.6 | 3.5 | 0.00 | 0.00 | 0.00 | 62 | 1013.5 |
| 20260509231506 | 60 | 15 | 2.6 | 3.5 | 0.00 | 0.00 | 0.00 | 62 | 1013.4 |
| 20260509230504 | 60 | 9 | 2.6 | 3.5 | 0.00 | 0.00 | 0.00 | 61 | 1013.6 |
| 20260509230004 | 61 | 9 | 3.5 | 3.5 | 0.00 | 0.00 | 0.00 | 61 | 1013.4 |
| 20260509225504 | 61 | 11 | 3.5 | 3.5 | 0.00 | 0.00 | 0.00 | 60 | 1013.4 |
| 20260509225004 | 61 | 13 | 2.6 | 3.5 | 0.00 | 0.00 | 0.00 | 60 | 1013.5 |